| time (UTC) | temp F | wind direction | speed MPH | gust MPH | rain 1hr in | rain 24hr in | rain mn in | humidity % | barometer mb |
| 20260903203055 | 0 | 139 | 5.0 | 12.0 | 0.00 | 0.00 | 0.00 | 1015.4 | |
| 20260903201648 | 0 | 138 | 2.0 | 8.0 | 0.00 | 0.00 | 0.00 | 1015.5 | |
| 20260903200043 | 0 | 138 | 5.0 | 9.0 | 0.00 | 0.00 | 0.00 | 1015.6 | |
| 20260903194538 | 0 | 138 | 4.0 | 9.0 | 0.00 | 0.00 | 0.00 | 1015.9 | |
| 20260903193035 | 0 | 137 | 0.0 | 5.0 | 0.00 | 0.00 | 0.00 | 1016.0 | |
| 20260903191538 | 0 | 137 | 3.0 | 10.0 | 0.00 | 0.00 | 0.00 | 1016.2 | |
| 20260903190026 | 0 | 137 | 4.0 | 13.0 | 0.00 | 0.00 | 0.00 | 1016.3 | |
| 20260903184521 | 0 | 136 | 1.0 | 7.0 | 0.00 | 0.00 | 0.00 | 1016.5 | |
| 20260903183025 | 0 | 136 | 4.0 | 9.0 | 0.00 | 0.00 | 0.00 | 1016.6 | |
| 20260903181514 | 0 | 133 | 4.0 | 10.0 | 0.00 | 0.00 | 0.00 | 1016.7 | |
| 20260903180024 | 0 | 132 | 2.0 | 9.0 | 0.00 | 0.00 | 0.00 | 1016.7 | |
| 20260903174512 | 0 | 132 | 4.0 | 9.0 | 0.00 | 0.00 | 0.00 | 1016.9 | |
| 20260903173012 | 0 | 132 | 3.0 | 8.0 | 0.00 | 0.00 | 0.00 | 1017.0 | |
| 20260903171511 | 0 | 132 | 2.0 | 11.0 | 0.00 | 0.00 | 0.00 | 1017.3 | |
| 20260903170013 | 0 | 128 | 2.0 | 7.0 | 0.00 | 0.00 | 0.00 | 1017.4 | |
| 20260903164510 | 0 | 128 | 3.0 | 7.0 | 0.00 | 0.00 | 0.00 | 1017.6 | |
| 20260903163009 | 0 | 129 | 4.0 | 8.0 | 0.00 | 0.00 | 0.00 | 1017.7 | |
| 20260903161509 | 0 | 126 | 0.0 | 4.0 | 0.00 | 0.00 | 0.00 | 1017.7 | |
| 20260903160009 | 0 | 126 | 0.0 | 4.0 | 0.00 | 0.00 | 0.00 | 1017.8 | |
| 20260903154508 | 0 | 126 | 0.0 | 4.0 | 0.00 | 0.00 | 0.00 | 1017.8 | |
| 20260903153005 | 0 | 126 | 0.0 | 4.0 | 0.00 | 0.00 | 0.00 | 1017.8 | |
| 20260903151601 | 0 | 126 | 1.0 | 6.0 | 0.00 | 0.00 | 0.00 | 1017.9 | |
| 20260903150100 | 0 | 126 | 3.0 | 6.0 | 0.00 | 0.00 | 0.00 | 1017.8 | |
| 20260903144553 | 0 | 126 | 1.0 | 4.0 | 0.00 | 0.00 | 0.00 | 1017.9 | |
| 20260903143051 | 0 | 126 | 1.0 | 4.0 | 0.00 | 0.00 | 0.00 | 1017.8 | |
| 20260903141544 | 0 | 126 | 2.0 | 6.0 | 0.00 | 0.00 | 0.00 | 1017.8 | |
| 20260903140039 | 0 | 126 | 2.0 | 7.0 | 0.00 | 0.00 | 0.00 | 1017.9 | |
| 20260903134533 | 0 | 125 | 1.0 | 4.0 | 0.00 | 0.00 | 0.00 | 1017.9 | |
| 20260903133035 | 0 | 125 | 0.0 | 2.0 | 0.00 | 0.00 | 0.00 | 1018.1 | |
| 20260903131531 | 0 | 125 | 0.0 | 4.0 | 0.00 | 0.00 | 0.00 | 1018.2 | |
| 20260903130026 | 0 | 125 | 0.0 | 1.0 | 0.00 | 0.00 | 0.00 | 1018.1 | |
| 20260903124522 | 0 | 125 | 0.0 | 0.0 | 0.00 | 0.00 | 0.00 | 1018.2 | |
| 20260903123018 | 0 | 125 | 0.0 | 0.0 | 0.00 | 0.00 | 0.00 | 1018.3 | |
| 20260903121523 | 0 | 125 | 0.0 | 0.0 | 0.00 | 0.00 | 0.00 | 1018.2 | |
| 20260903120009 | 0 | 125 | 0.0 | 0.0 | 0.00 | 0.00 | 0.00 | 1018.3 | |
| 20260903114505 | 0 | 125 | 0.0 | 0.0 | 0.00 | 0.00 | 0.00 | 1018.2 | |
| 20260903113103 | 0 | 125 | 0.0 | 0.0 | 0.00 | 0.00 | 0.00 | 1018.1 | |
| 20260903111556 | 0 | 125 | 0.0 | 0.0 | 0.00 | 0.00 | 0.00 | 1017.9 | |
| 20260903110100 | 0 | 125 | 0.0 | 0.0 | 0.00 | 0.00 | 0.00 | 1017.7 | |
| 20260903104547 | 0 | 125 | 0.0 | 0.0 | 0.00 | 0.00 | 0.00 | 1017.6 | |
| 20260903103043 | 0 | 125 | 0.0 | 0.0 | 0.00 | 0.00 | 0.00 | 1017.4 | |
| 20260903101539 | 0 | 125 | 0.0 | 0.0 | 0.00 | 0.00 | 0.00 | 1017.4 | |
| 20260903100044 | 0 | 125 | 0.0 | 0.0 | 0.00 | 0.00 | 0.00 | 1017.4 | |
| 20260903094531 | 0 | 125 | 0.0 | 0.0 | 0.00 | 0.00 | 0.00 | 1017.4 | |
| 20260903093029 | 0 | 125 | 0.0 | 0.0 | 0.00 | 0.00 | 0.00 | 1017.3 | |
| 20260903091522 | 0 | 125 | 0.0 | 0.0 | 0.00 | 0.00 | 0.00 | 1017.3 | |
| 20260903090018 | 0 | 125 | 0.0 | 0.0 | 0.00 | 0.00 | 0.00 | 1017.1 | |
| 20260903084513 | 0 | 125 | 0.0 | 0.0 | 0.00 | 0.00 | 0.00 | 1017.1 | |
| 20260903083010 | 0 | 125 | 0.0 | 0.0 | 0.00 | 0.00 | 0.00 | 1017.1 | |
| 20260903081504 | 0 | 125 | 0.0 | 0.0 | 0.00 | 0.00 | 0.00 | 1017.1 | |
| 20260903074623 | 0 | 125 | 0.0 | 0.0 | 0.00 | 0.00 | 0.00 | 1017.0 | |
| 20260903073057 | 0 | 125 | 0.0 | 0.0 | 0.00 | 0.00 | 0.00 | 1016.9 | |
| 20260903071546 | 0 | 125 | 0.0 | 0.0 | 0.00 | 0.00 | 0.00 | 1016.7 | |
| 20260903070041 | 0 | 125 | 0.0 | 0.0 | 0.00 | 0.00 | 0.00 | 1016.5 | |
| 20260903064536 | 0 | 125 | 0.0 | 0.0 | 0.00 | 0.00 | 0.00 | 1016.6 | |
| 20260903063032 | 0 | 125 | 0.0 | 0.0 | 0.00 | 0.00 | 0.00 | 1016.4 | |
| 20260903061542 | 0 | 125 | 0.0 | 0.0 | 0.00 | 0.00 | 0.00 | 1016.7 | |
| 20260903060023 | 0 | 125 | 0.0 | 0.0 | 0.00 | 0.00 | 0.00 | 1017.0 | |
| 20260903054520 | 0 | 125 | 0.0 | 0.0 | 0.00 | 0.00 | 0.00 | 1017.0 | |
| 20260903053015 | 0 | 125 | 0.0 | 0.0 | 0.00 | 0.00 | 0.00 | 1017.0 | |
| 20260903051510 | 0 | 125 | 0.0 | 0.0 | 0.00 | 0.00 | 0.00 | 1017.1 | |
| 20260903050006 | 0 | 125 | 0.0 | 0.0 | 0.00 | 0.00 | 0.00 | 1017.1 | |
| 20260903044501 | 0 | 125 | 0.0 | 0.0 | 0.00 | 0.00 | 0.00 | 1017.1 | |
| 20260903043056 | 0 | 125 | 0.0 | 0.0 | 0.00 | 0.00 | 0.00 | 1017.0 | |
| 20260903041608 | 0 | 125 | 0.0 | 0.0 | 0.00 | 0.00 | 0.00 | 1017.1 | |
| 20260903040050 | 0 | 125 | 0.0 | 0.0 | 0.00 | 0.00 | 0.00 | 1017.2 | |
| 20260903034548 | 0 | 125 | 0.0 | 0.0 | 0.00 | 0.00 | 0.00 | 1017.3 | |
| 20260903033048 | 0 | 125 | 0.0 | 0.0 | 0.00 | 0.00 | 0.00 | 1017.3 | |
| 20260903031547 | 0 | 125 | 0.0 | 0.0 | 0.00 | 0.00 | 0.00 | 1017.3 | |
| 20260903030047 | 0 | 125 | 0.0 | 0.0 | 0.00 | 0.00 | 0.00 | 1017.5 | |
| 20260903024546 | 0 | 125 | 0.0 | 0.0 | 0.00 | 0.00 | 0.00 | 1017.3 | |
| 20260903023045 | 0 | 125 | 0.0 | 0.0 | 0.00 | 0.00 | 0.00 | 1017.4 | |
| 20260903021545 | 0 | 125 | 0.0 | 0.0 | 0.00 | 0.00 | 0.00 | 1017.4 | |
| 20260903020051 | 0 | 125 | 0.0 | 0.0 | 0.00 | 0.00 | 0.00 | 1017.4 | |
| 20260903014605 | 0 | 125 | 0.0 | 0.0 | 0.00 | 0.00 | 0.00 | 1017.3 | |
| 20260903013056 | 0 | 125 | 0.0 | 0.0 | 0.00 | 0.00 | 0.00 | 1017.1 | |
| 20260903011553 | 0 | 125 | 0.0 | 0.0 | 0.00 | 0.00 | 0.00 | 1016.9 | |
| 20260903010039 | 0 | 125 | 0.0 | 0.0 | 0.00 | 0.00 | 0.00 | 1016.8 | |
| 20260903004527 | 0 | 125 | 0.0 | 0.0 | 0.00 | 0.00 | 0.00 | 1016.7 | |
| 20260903003023 | 0 | 125 | 0.0 | 0.0 | 0.00 | 0.00 | 0.00 | 1016.5 | |
| 20260903001519 | 0 | 125 | 0.0 | 0.0 | 0.00 | 0.00 | 0.00 | 1016.3 | |
| 20260903000014 | 0 | 125 | 0.0 | 0.0 | 0.00 | 0.00 | 0.00 | 1016.2 | |
| 20260902234509 | 0 | 125 | 0.0 | 0.0 | 0.00 | 0.00 | 0.00 | 1016.1 | |
| 20260902233005 | 0 | 125 | 0.0 | 0.0 | 0.00 | 0.00 | 0.00 | 1016.1 | |
| 20260902231603 | 0 | 125 | 0.0 | 0.0 | 0.00 | 0.00 | 0.00 | 1016.0 | |
| 20260902230100 | 0 | 125 | 0.0 | 0.0 | 0.00 | 0.00 | 0.00 | 1016.1 | |
| 20260902224557 | 0 | 125 | 0.0 | 2.0 | 0.00 | 0.00 | 0.00 | 1016.1 | |
| 20260902223047 | 0 | 125 | 0.0 | 2.0 | 0.00 | 0.00 | 0.00 | 1016.2 | |
| 20260902221543 | 0 | 125 | 1.0 | 3.0 | 0.00 | 0.00 | 0.00 | 1016.2 | |
| 20260902220043 | 0 | 125 | 1.0 | 2.0 | 0.00 | 0.00 | 0.00 | 1016.3 | |
| 20260902214541 | 0 | 125 | 0.0 | 3.0 | 0.00 | 0.00 | 0.00 | 1016.4 | |
| 20260902213030 | 0 | 125 | 2.0 | 3.0 | 0.00 | 0.00 | 0.00 | 1016.3 | |
| 20260902211529 | 0 | 125 | 1.0 | 4.0 | 0.00 | 0.00 | 0.00 | 1016.4 | |
| 20260902210022 | 0 | 125 | 3.0 | 7.0 | 0.00 | 0.00 | 0.00 | 1016.4 | |
| 20260902204516 | 0 | 125 | 2.0 | 7.0 | 0.00 | 0.00 | 0.00 | 1016.6 |